{"data":{"norad_id":68663,"epoch":"2026-09-19T10:04:39.213120Z","epoch_age_seconds":137435,"freshness":"FRESH","line1":"1 68663U 26077B   26262.41989830  .00018732  00000+0  58094-3 0  9990","line2":"2 68663  97.2849 132.2721 0001792  92.5325 267.6123 15.33453342 24841","mean_motion":15.33453342,"eccentricity":0.0001792,"inclination_deg":97.2849,"raan_deg":132.2721,"arg_perigee_deg":92.5325,"mean_anomaly_deg":267.6123,"bstar":0.00058094,"rev_number":2484,"period_min":93.905693806235,"perigee_km":464.29197162819,"apogee_km":466.7447377073,"semimajor_km":6843.6553546677,"source":"CELESTRAK","updated_at":"2026-09-20T09:00:43.949448Z"}}